When you browse on this site, cookies collect data to enhance your experience and personalize the content and advertising you see.
Visit our Privacy Policy to learn more. By continuing to use the site, you agree to this use of cookies and data.
  • In Latvia
  • List of Countries
  • For 7 days
  • Water Temperature
  • Satellite Maps
  • Weather Map
  • Weather Widgets
  • user-avatar
    Login

    Hourly Weather University Park

    Today, 23 January, Wednesday

    Time Temperature Precipitation Wind Pressure Humidity
    00:00 0°C° 0 mm 7 mps 750 mmHg 53%
    01:00 -1°C° 0 mm 7 mps 750 mmHg 51%
    02:00 -1°C° 0 mm 7 mps 751 mmHg 50%
    03:00 -2°C° 0 mm 7 mps 751 mmHg 49%
    04:00 -2°C° 0 mm 7 mps 751 mmHg 49%
    05:00 -3°C° 0 mm 6 mps 751 mmHg 49%
    06:00 -3°C° 0 mm 6 mps 751 mmHg 49%
    07:00 -3°C° 0 mm 6 mps 752 mmHg 48%
    08:00 -3°C° 0 mm 6 mps 752 mmHg 47%
    09:00 -2°C° 0 mm 6 mps 752 mmHg 46%
    10:00 -1°C° 0 mm 6 mps 752 mmHg 43%
    11:00 +1°C° 0 mm 6 mps 752 mmHg 40%
    12:00 +3°C° 0 mm 6 mps 752 mmHg 36%
    13:00 +4°C° 0 mm 6 mps 751 mmHg 34%
    14:00 +5°C° 0 mm 6 mps 751 mmHg 31%
    15:00 +7°C° 0 mm 6 mps 751 mmHg 29%
    16:00 +7°C° 0 mm 5 mps 750 mmHg 31%
    17:00 +6°C° 0 mm 4 mps 750 mmHg 33%
    18:00 +7°C° 0 mm 3 mps 750 mmHg 34%
    19:00 +7°C° 0 mm 2 mps 750 mmHg 36%
    20:00 +7°C° 0 mm 1 mps 751 mmHg 37%
    21:00 +7°C° 0 mm 1 mps 751 mmHg 38%
    22:00 +7°C° 0 mm 1 mps 751 mmHg 39%
    23:00 +7°C° 0 mm 1 mps 750 mmHg 39%

    Tomorrow, 24 January, Thursday

    Time Temperature Precipitation Wind Pressure Humidity
    00:00 +6°C° 0 mm 1 mps 750 mmHg 39%
    01:00 +5°C° 0 mm 2 mps 750 mmHg 40%
    02:00 +5°C° 0 mm 2 mps 750 mmHg 41%
    03:00 +4°C° 0 mm 3 mps 750 mmHg 42%
    04:00 +3°C° 0 mm 3 mps 750 mmHg 43%
    05:00 +3°C° 0 mm 3 mps 750 mmHg 44%
    06:00 +3°C° 0 mm 3 mps 750 mmHg 45%
    07:00 +4°C° 0 mm 3 mps 750 mmHg 45%
    08:00 +4°C° 0 mm 3 mps 751 mmHg 45%
    09:00 +5°C° 0 mm 3 mps 751 mmHg 45%
    10:00 +7°C° 0 mm 3 mps 751 mmHg 42%
    11:00 +9°C° 0 mm 3 mps 751 mmHg 39%
    12:00 +11°C° 0 mm 3 mps 751 mmHg 36%
    13:00 +13°C° 0 mm 2 mps 751 mmHg 35%
    14:00 +14°C° 0 mm 2 mps 751 mmHg 33%
    15:00 +14°C° 0 mm 1 mps 751 mmHg 32%
    16:00 +14°C° 0 mm 2 mps 752 mmHg 36%
    17:00 +13°C° 0 mm 2 mps 752 mmHg 39%
    18:00 +11°C° 0 mm 3 mps 753 mmHg 42%
    19:00 +10°C° 0 mm 4 mps 754 mmHg 47%
    20:00 +7°C° 0 mm 6 mps 755 mmHg 52%
    21:00 +4°C° 0 mm 7 mps 756 mmHg 57%
    22:00 +3°C° 0 mm 6 mps 756 mmHg 57%
    23:00 +2°C° 0 mm 5 mps 757 mmHg 57%

    Day after tomorrow, 25 January, Friday

    Time Temperature Precipitation Wind Pressure Humidity
    00:00 +2°C° 0 mm 5 mps 758 mmHg 56%
    01:00 +1°C° 0 mm 4 mps 758 mmHg 57%
    02:00 0°C° 0 mm 4 mps 758 mmHg 57%
    03:00 0°C° 0 mm 4 mps 758 mmHg 58%
    04:00 0°C° 0 mm 3 mps 758 mmHg 58%
    05:00 0°C° 0 mm 3 mps 757 mmHg 58%
    06:00 0°C° 0 mm 3 mps 757 mmHg 59%
    07:00 +1°C° 0 mm 2 mps 758 mmHg 55%
    08:00 +1°C° 0 mm 2 mps 758 mmHg 52%
    09:00 +1°C° 0 mm 2 mps 758 mmHg 48%
    10:00 +2°C° 0 mm 2 mps 758 mmHg 44%
    11:00 +5°C° 0 mm 1 mps 758 mmHg 40%
    12:00 +6°C° 0 mm 1 mps 758 mmHg 35%
    13:00 +7°C° 0 mm 1 mps 757 mmHg 37%
    14:00 +8°C° 0 mm 1 mps 756 mmHg 38%
    15:00 +9°C° 0 mm 1 mps 755 mmHg 39%
    16:00 +9°C° 0 mm 1 mps 755 mmHg 42%
    17:00 +9°C° 0 mm 1 mps 755 mmHg 46%
    18:00 +9°C° 0 mm 1 mps 754 mmHg 50%
    19:00 +8°C° 0 mm 1 mps 755 mmHg 53%
    20:00 +7°C° 0 mm 2 mps 755 mmHg 56%
    21:00 +7°C° 0 mm 2 mps 755 mmHg 59%
    22:00 +7°C° 0 mm 2 mps 755 mmHg 63%
    23:00 +6°C° 0 mm 2 mps 754 mmHg 66%

    26 January, Saturday

    Time Temperature Precipitation Wind Pressure Humidity
    00:00 +6°C° 0 mm 2 mps 754 mmHg 70%
    01:00 +6°C° 0 mm 2 mps 754 mmHg 72%
    02:00 +5°C° 0 mm 2 mps 753 mmHg 75%
    03:00 +6°C° 0 mm 1 mps 753 mmHg 77%
    04:00 +6°C° 0 mm 1 mps 753 mmHg 78%
    05:00 +6°C° 0 mm 1 mps 753 mmHg 80%
    06:00 +6°C° 0 mm 1 mps 753 mmHg 81%
    07:00 +6°C° 0 mm 1 mps 753 mmHg 79%
    08:00 +7°C° 0 mm 1 mps 754 mmHg 77%
    09:00 +6°C° 0 mm 2 mps 754 mmHg 75%
    10:00 +8°C° 0 mm 2 mps 754 mmHg 71%
    11:00 +10°C° 0 mm 2 mps 754 mmHg 66%
    12:00 +12°C° 0 mm 2 mps 754 mmHg 61%
    13:00 +13°C° 0 mm 2 mps 753 mmHg 60%
    14:00 +14°C° 0 mm 2 mps 752 mmHg 58%
    15:00 +15°C° 0 mm 2 mps 751 mmHg 57%
    16:00 +14°C° 0 mm 1 mps 751 mmHg 60%
    17:00 +14°C° 0 mm 1 mps 751 mmHg 63%
    18:00 +13°C° 0 mm 1 mps 751 mmHg 65%
    19:00 +13°C° 0 mm 1 mps 752 mmHg 69%
    20:00 +12°C° 0 mm 1 mps 752 mmHg 73%
    21:00 +12°C° 0 mm 1 mps 753 mmHg 77%
    22:00 +11°C° 0 mm 1 mps 753 mmHg 79%
    23:00 +11°C° 0 mm 1 mps 753 mmHg 80%

    27 January, Sunday

    Time Temperature Precipitation Wind Pressure Humidity
    00:00 +10°C° 0 mm 1 mps 753 mmHg 82%
    01:00 +10°C° 0 mm 1 mps 753 mmHg 80%
    02:00 +9°C° 0 mm 2 mps 753 mmHg 79%
    03:00 +8°C° 0 mm 2 mps 753 mmHg 77%
    04:00 +9°C° 0 mm 1 mps 753 mmHg 73%
    05:00 +8°C° 0 mm 1 mps 753 mmHg 69%
    06:00 +8°C° 0 mm 1 mps 752 mmHg 65%
    07:00 +8°C° 0 mm 1 mps 753 mmHg 61%
    08:00 +9°C° 0 mm 1 mps 753 mmHg 58%
    09:00 +9°C° 0 mm 1 mps 753 mmHg 55%
    10:00 +11°C° 0 mm 1 mps 753 mmHg 49%
    11:00 +13°C° 0 mm 2 mps 752 mmHg 43%
    12:00 +15°C° 0 mm 2 mps 752 mmHg 37%
    13:00 +14°C° 0 mm 3 mps 750 mmHg 35%
    14:00 +16°C° 0 mm 3 mps 749 mmHg 32%
    15:00 +17°C° 0 mm 3 mps 748 mmHg 30%
    16:00 +17°C° 0 mm 3 mps 748 mmHg 34%
    17:00 +16°C° 0 mm 3 mps 747 mmHg 37%
    18:00 +14°C° 0 mm 3 mps 747 mmHg 41%
    19:00 +14°C° 0 mm 3 mps 747 mmHg 46%
    20:00 +13°C° 0 mm 4 mps 746 mmHg 52%
    21:00 +13°C° 0 mm 4 mps 746 mmHg 57%
    22:00 +13°C° 0 mm 5 mps 746 mmHg 63%
    23:00 +12°C° 0 mm 5 mps 745 mmHg 68%

    28 January, Monday

    Time Temperature Precipitation Wind Pressure Humidity
    00:00 +11°C° 0 mm 6 mps 744 mmHg 73%
    01:00 +11°C° 0 mm 6 mps 744 mmHg 75%
    02:00 +11°C° 0 mm 6 mps 743 mmHg 76%
    03:00 +11°C° 0 mm 6 mps 742 mmHg 78%
    04:00 +11°C° 0 mm 7 mps 742 mmHg 79%
    05:00 +11°C° 0 mm 7 mps 741 mmHg 80%
    06:00 +11°C° 0 mm 7 mps 740 mmHg 81%
    07:00 +11°C° 0 mm 7 mps 740 mmHg 80%
    08:00 +11°C° 0 mm 8 mps 740 mmHg 80%
    09:00 +12°C° 0 mm 8 mps 740 mmHg 79%
    10:00 +13°C° 0 mm 8 mps 740 mmHg 71%
    11:00 +16°C° 0 mm 7 mps 740 mmHg 63%
    12:00 +18°C° 0 mm 7 mps 740 mmHg 55%
    13:00 +19°C° 0 mm 6 mps 740 mmHg 48%
    14:00 +20°C° 0 mm 5 mps 740 mmHg 40%
    15:00 +21°C° 0 mm 5 mps 740 mmHg 32%
    16:00 +16°C° 0 mm 6 mps 741 mmHg 39%
    17:00 +12°C° 0 mm 8 mps 743 mmHg 45%
    18:00 +7°C° 0 mm 10 mps 744 mmHg 52%
    19:00 +6°C° 0 mm 10 mps 745 mmHg 49%
    20:00 +5°C° 0 mm 9 mps 747 mmHg 46%
    21:00 +3°C° 0 mm 9 mps 748 mmHg 43%
    22:00 +3°C° 0 mm 9 mps 749 mmHg 42%
    23:00 +2°C° 0 mm 9 mps 750 mmHg 41%
    Show more